Showing default

TROOP-F2, 60557

Orbit data source: Space-Track

TROOP-F2, 60557 is a payload satellite owned by NearSpaceLaunch (US) in SSO that was launched on Fri, 16 Aug 2024 UTC via an FALCON 9 launch vehicle from the Air Force Western Test Range (AFWTR). Payload-class satellites include a variety of spacecraft equipped with specific instruments for various scientific and technological missions. These include communications satellites like Starlink; space stations such as the ISS; scientific satellites like the Hubble; Earth observation satellites from companies like Planet Labs, Umbra, and HawkEye 360; GPS; miniature CubeSats for education and research; and military/defense satellites.

Loading next visibility...
Identifier
60557, 2024-149CT
Orbit
SSO
Country
Flag of USUS
Related business
Manufacturer
NearSpaceLaunch
Mission
Operational Commercial Technology
Bus & Motor
CUBESAT 6U, Unknown motor
Mass
10 kg wet, ~10 kg dry
Launch date (UTC)
2024-08-16 (1 year ago)
Launch vehicle
FALCON 9
Launch site
Air Force Western Test Range (AFWTR)
Object type
Payload
Rocket body
Debris
Shape & HBR
Box + 4 Pan, 0.3 m
Radar Cross Section
0.139 m², Medium (>0.1 m² and < 1m²)

Expand to show TLE details & history
Last TLE update: 22 hours ago

TLE from 22 hours ago
0 TROOP-F2
1 60557U 24149CT  26034.19455549  .00089007  00000-0  98393-3 0  9999
2 60557  97.3766 123.4514 0002172 333.1724  26.9421 15.62744196 82142
Epoch: 2026-02-03T04:40Z
TLE epoch observation values (Epoch: 2026-02-03T04:40:09.594Z)
Latitude
-0.00008°
Longitude
-79.96755°
Altitude
381.574 km
Speed
7.682 km/s
True Right ascension
08h 13m 48s
True Declination
0° 00' 00"
Sunlit
Object was in full shadow at epoch
Visualization orbit readout
Latitude
Unknown
Longitude
Unknown
Altitude
Unknown
Speed
Unknown
Apparent Right ascension
Unknown
Apparent Declination
Unknown
Sunlit
N/A
Visualization observer readout
Local Sidereal Time
04:27:00
Azimuth
Unknown
Elevation
Unknown
Doppler factor
Unknown
Orbital elements
Apogee altitude
378.109 km
Perigee altitude
375.175 km
Semi-major axis
6,754.779 km
Eccentricity
0.00022
Inclination
97.3766°
RAAN
123.4514°
Arg. of periapsis
333.1724°
True anomaly
26.95338°
Mean anomaly
26.9421°
Eccentric anomaly
26.94774°
Mean motion
3.90955 °/min
Orbital period
92.08 mins
BSTAR
0.00098393
Loading maneuver chart data...
Computing Atmospheric mass density...
Loading historical data...
Loading historical data...
Loading historical data...
Loading historical data...
Loading historical data...
Loading historical data...
Loading historical data...

Documentation

Showing up to 5 results
|